When you browse on this site, cookies collect data to enhance your experience and personalize the content and advertising you see.
Visit our Privacy Policy to learn more. By continuing to use the site, you agree to this use of cookies and data.
  • In Hungary
  • List of Countries
  • For 7 days
  • Water Temperature
  • Satellite Maps
  • Weather Map
  • News
  • Weather Widgets
  • user-avatar
    Login

    Hourly Weather Czartoszowy

    Today, 22 May, Wednesday

    Time Temperature Precipitation Wind Pressure Humidity
    00:00 +12°C° 0 mm 2 mps 729 mmHg 98%
    01:00 +13°C° 0 mm 2 mps 728 mmHg 99%
    02:00 +13°C° 0.1 mm 2 mps 728 mmHg 98%
    03:00 +13°C° 0.1 mm 2 mps 728 mmHg 98%
    04:00 +11°C° 0.1 mm 3 mps 728 mmHg 97%
    05:00 +12°C° 0.4 mm 3 mps 728 mmHg 97%
    06:00 +12°C° 0.4 mm 3 mps 729 mmHg 97%
    07:00 +12°C° 0.4 mm 3 mps 729 mmHg 96%
    08:00 +13°C° 0.5 mm 3 mps 729 mmHg 95%
    09:00 +13°C° 0.5 mm 3 mps 729 mmHg 93%
    10:00 +14°C° 0.5 mm 4 mps 729 mmHg 91%
    11:00 +14°C° 1.3 mm 4 mps 729 mmHg 90%
    12:00 +15°C° 1.3 mm 4 mps 730 mmHg 89%
    13:00 +15°C° 1.3 mm 4 mps 730 mmHg 88%
    14:00 +17°C° 1.2 mm 4 mps 730 mmHg 86%
    15:00 +18°C° 1.2 mm 4 mps 730 mmHg 83%
    16:00 +18°C° 1.2 mm 4 mps 730 mmHg 81%
    17:00 +18°C° 0.7 mm 4 mps 730 mmHg 84%
    18:00 +17°C° 0.7 mm 4 mps 730 mmHg 88%
    19:00 +16°C° 0.7 mm 3 mps 731 mmHg 91%
    20:00 +14°C° 0.9 mm 3 mps 731 mmHg 93%
    21:00 +13°C° 0.9 mm 3 mps 731 mmHg 94%
    22:00 +13°C° 0.9 mm 3 mps 732 mmHg 96%
    23:00 +13°C° 0.6 mm 3 mps 732 mmHg 97%

    Tomorrow, 23 May, Thursday

    Time Temperature Precipitation Wind Pressure Humidity
    00:00 +13°C° 0.6 mm 4 mps 732 mmHg 97%
    01:00 +13°C° 0.6 mm 4 mps 733 mmHg 97%
    02:00 +13°C° 0.2 mm 4 mps 733 mmHg 97%
    03:00 +13°C° 0.2 mm 4 mps 733 mmHg 97%
    04:00 +13°C° 0.2 mm 4 mps 733 mmHg 96%
    05:00 +14°C° 0.2 mm 4 mps 734 mmHg 96%
    06:00 +14°C° 0.2 mm 4 mps 734 mmHg 95%
    07:00 +14°C° 0.2 mm 4 mps 734 mmHg 94%
    08:00 +14°C° 0.3 mm 5 mps 735 mmHg 94%
    09:00 +14°C° 0.3 mm 5 mps 735 mmHg 94%
    10:00 +14°C° 0.3 mm 5 mps 736 mmHg 93%
    11:00 +14°C° 0.2 mm 6 mps 736 mmHg 93%
    12:00 +14°C° 0.2 mm 6 mps 736 mmHg 93%
    13:00 +14°C° 0.2 mm 7 mps 736 mmHg 93%
    14:00 +14°C° 0.1 mm 7 mps 736 mmHg 92%
    15:00 +14°C° 0.1 mm 7 mps 736 mmHg 92%
    16:00 +12°C° 0.1 mm 7 mps 737 mmHg 91%
    17:00 +13°C° 0.1 mm 6 mps 737 mmHg 91%
    18:00 +13°C° 0.1 mm 5 mps 737 mmHg 91%
    19:00 +13°C° 0.1 mm 5 mps 737 mmHg 91%
    20:00 +13°C° 0.1 mm 5 mps 737 mmHg 91%
    21:00 +13°C° 0.1 mm 4 mps 737 mmHg 92%
    22:00 +12°C° 0.1 mm 4 mps 738 mmHg 93%
    23:00 +12°C° 0.1 mm 4 mps 738 mmHg 92%

    Day after tomorrow, 24 May, Friday

    Time Temperature Precipitation Wind Pressure Humidity
    00:00 +12°C° 0.1 mm 4 mps 738 mmHg 92%
    01:00 +11°C° 0.1 mm 4 mps 738 mmHg 92%
    02:00 +11°C° 0.1 mm 4 mps 738 mmHg 89%
    03:00 +11°C° 0.1 mm 3 mps 738 mmHg 87%
    04:00 +10°C° 0.1 mm 3 mps 738 mmHg 85%
    05:00 +10°C° 0 mm 3 mps 738 mmHg 83%
    06:00 +11°C° 0 mm 4 mps 738 mmHg 81%
    07:00 +11°C° 0 mm 4 mps 738 mmHg 78%
    08:00 +13°C° 0 mm 4 mps 738 mmHg 72%
    09:00 +15°C° 0 mm 4 mps 738 mmHg 66%
    10:00 +18°C° 0 mm 4 mps 738 mmHg 60%
    11:00 +18°C° 0 mm 4 mps 738 mmHg 58%
    12:00 +19°C° 0 mm 4 mps 738 mmHg 57%
    13:00 +20°C° 0 mm 4 mps 738 mmHg 55%
    14:00 +20°C° 0 mm 4 mps 737 mmHg 55%
    15:00 +20°C° 0 mm 4 mps 737 mmHg 56%
    16:00 +20°C° 0 mm 4 mps 737 mmHg 57%
    17:00 +18°C° 0 mm 3 mps 736 mmHg 63%
    18:00 +17°C° 0 mm 3 mps 736 mmHg 69%
    19:00 +16°C° 0 mm 2 mps 736 mmHg 76%
    20:00 +15°C° 0 mm 2 mps 736 mmHg 79%
    21:00 +14°C° 0 mm 2 mps 736 mmHg 83%
    22:00 +13°C° 0 mm 1 mps 737 mmHg 87%
    23:00 +12°C° 0 mm 1 mps 737 mmHg 89%

    25 May, Saturday

    Time Temperature Precipitation Wind Pressure Humidity
    00:00 +12°C° 0 mm 1 mps 737 mmHg 91%
    01:00 +12°C° 0 mm 1 mps 737 mmHg 93%
    02:00 +11°C° 0 mm 1 mps 737 mmHg 93%
    03:00 +11°C° 0 mm 1 mps 737 mmHg 93%
    04:00 +11°C° 0 mm 1 mps 736 mmHg 93%
    05:00 +13°C° 0 mm 2 mps 736 mmHg 88%
    06:00 +15°C° 0 mm 2 mps 736 mmHg 82%
    07:00 +16°C° 0 mm 2 mps 736 mmHg 76%
    08:00 +18°C° 0 mm 3 mps 736 mmHg 70%
    09:00 +19°C° 0 mm 3 mps 736 mmHg 64%
    10:00 +20°C° 0 mm 4 mps 737 mmHg 58%
    11:00 +21°C° 0.2 mm 4 mps 736 mmHg 58%
    12:00 +21°C° 0.2 mm 5 mps 736 mmHg 59%
    13:00 +21°C° 0.2 mm 5 mps 736 mmHg 59%
    14:00 +21°C° 0.1 mm 5 mps 736 mmHg 61%
    15:00 +20°C° 0.1 mm 5 mps 736 mmHg 62%
    16:00 +20°C° 0.1 mm 5 mps 736 mmHg 64%
    17:00 +19°C° 0 mm 5 mps 736 mmHg 68%
    18:00 +17°C° 0 mm 4 mps 736 mmHg 72%
    19:00 +16°C° 0 mm 3 mps 736 mmHg 76%
    20:00 +15°C° 0 mm 2 mps 736 mmHg 79%
    21:00 +14°C° 0 mm 2 mps 737 mmHg 82%
    22:00 +12°C° 0 mm 2 mps 737 mmHg 86%
    23:00 +12°C° 0 mm 2 mps 737 mmHg 89%

    26 May, Sunday

    Time Temperature Precipitation Wind Pressure Humidity
    00:00 +10°C° 0 mm 2 mps 737 mmHg 92%
    01:00 +9°C° 0 mm 2 mps 737 mmHg 95%
    02:00 +9°C° 0 mm 2 mps 737 mmHg 94%
    03:00 +9°C° 0 mm 2 mps 737 mmHg 94%
    04:00 +8°C° 0 mm 2 mps 736 mmHg 94%
    05:00 +10°C° 0 mm 3 mps 736 mmHg 87%
    06:00 +11°C° 0 mm 4 mps 736 mmHg 81%
    07:00 +13°C° 0 mm 5 mps 736 mmHg 74%
    08:00 +14°C° 0 mm 6 mps 736 mmHg 70%
    09:00 +15°C° 0 mm 6 mps 736 mmHg 65%
    10:00 +16°C° 0 mm 7 mps 736 mmHg 60%
    11:00 +16°C° 0 mm 7 mps 736 mmHg 58%
    12:00 +17°C° 0 mm 7 mps 736 mmHg 56%
    13:00 +17°C° 0 mm 7 mps 736 mmHg 53%
    14:00 +17°C° 0 mm 7 mps 735 mmHg 53%
    15:00 +17°C° 0 mm 7 mps 735 mmHg 54%
    16:00 +17°C° 0 mm 6 mps 735 mmHg 54%
    17:00 +16°C° 0 mm 5 mps 735 mmHg 59%
    18:00 +15°C° 0 mm 4 mps 735 mmHg 64%
    19:00 +14°C° 0 mm 3 mps 735 mmHg 69%
    20:00 +13°C° 0 mm 3 mps 735 mmHg 73%
    21:00 +12°C° 0 mm 3 mps 736 mmHg 77%
    22:00 +11°C° 0 mm 3 mps 736 mmHg 81%
    23:00 +10°C° 0 mm 3 mps 736 mmHg 84%

    27 May, Monday

    Time Temperature Precipitation Wind Pressure Humidity
    00:00 +10°C° 0 mm 3 mps 736 mmHg 87%
    01:00 +10°C° 0 mm 2 mps 736 mmHg 90%
    02:00 +9°C° 0 mm 2 mps 736 mmHg 91%
    03:00 +9°C° 0 mm 2 mps 736 mmHg 92%
    04:00 +9°C° 0 mm 2 mps 736 mmHg 93%
    05:00 +12°C° 0 mm 2 mps 736 mmHg 88%
    06:00 +13°C° 0 mm 2 mps 736 mmHg 82%
    07:00 +15°C° 0 mm 2 mps 736 mmHg 76%
    08:00 +17°C° 0 mm 3 mps 736 mmHg 71%
    09:00 +18°C° 0 mm 4 mps 736 mmHg 65%
    10:00 +20°C° 0 mm 4 mps 735 mmHg 60%
    11:00 +21°C° 0.2 mm 5 mps 735 mmHg 59%
    12:00 +21°C° 0.2 mm 5 mps 735 mmHg 59%
    13:00 +22°C° 0.2 mm 5 mps 734 mmHg 58%
    14:00 +22°C° 0.2 mm 5 mps 734 mmHg 60%
    15:00 +22°C° 0.2 mm 5 mps 733 mmHg 61%
    16:00 +22°C° 0.2 mm 5 mps 733 mmHg 62%
    17:00 +21°C° 0.8 mm 5 mps 733 mmHg 68%
    18:00 +19°C° 0.8 mm 4 mps 733 mmHg 75%
    19:00 +18°C° 0.8 mm 4 mps 732 mmHg 81%
    20:00 +17°C° 0.4 mm 4 mps 733 mmHg 85%
    21:00 +16°C° 0.4 mm 3 mps 733 mmHg 89%
    22:00 +14°C° 0.4 mm 3 mps 733 mmHg 92%
    23:00 +14°C° 0.1 mm 3 mps 734 mmHg 94%
    Show more